Etusivu
METAR-TAF:

METAR-TAF

Lentoasemat :

Ortonville Municipal Airport (Martinson Field)

Ortonville, Minnesota, Yhdysvallat

Leveyspiiri: 45-18-20N, Pituuspiiri: 096-25-28W, korkeus merenpinnasta: 335 m

Tämänhetkinen sää

Tämä raportti tehtiin 18 minuuttia sitten, kello 09.15 UTC
Tuuli 6 kn kaakosta
Lämpötila -6°C
Kosteus 79%
Ilmanpaine 1009 hPa
Näkyvyys: 16.1 km
Hajonneita pilviä 4300 ft:n korkeudessa
Pilvistä 11000 ft:n korkeudessa

METAR: KVVV 130915Z AUTO 14006KT 10SM BKN043 OVC110 M06/M09 A2979 RMK AO2

Aika: 03:33 (09:33 UTC)


TAF: puuttuu

Säähavainnot ja -ennusteet yli 4000 lentoasemalta (METAR- ja TAF-raportit).

Käytössä olevat sääasemat on merkitty karttaan keltaisilla ja punaisilla pisteillä.

Aseta hiiri pisteen päälle nähdäksesi sääaseman nimen.

Klikkaa sitten nähdäksesi säähavainnot ja -ennusteet.

Kartan vaihtaminen: klikkaa mustalla rastilla varustettuja vihreitä pisteitä, niin voit zoomata sisään; viivalla varustettua vihreää pistettä, niin voit zoomata ulos tai vihreitä nuolia, niin pääset viereisille kartoille.


METAR-TAF: